[[{"header":{"parameterUnit":"m.s-1","parameterCategory":1,"la1":30.2991,"la2":30.254,"lo1":-89.0895,"lo2":-89.0444,"dy":0.0017,"dx":0.0017,"nx":28,"ny":28,"refTime":"2023-11-11T03:00:00:Z","depth":0,"parameterNumber":2,"parameterNumberName":"U-component_of_WINDS"},"data":[0,0,0,0,0,0,0,0,0,0,0,0,0,0,0,0,0,0,0,0,0,0,0,0,0,0,0,0,0,0,0,0,0,0,0,0,0,0,0,0,0,0,0,0,0,0,0,0,0,0,0,0,0,0,0,0,0,0,-2.8525,-2.8526,0,-2.8555,-2.8556,-2.8556,-2.8486,-2.8483,-2.8481,-2.8479,-2.8509,-2.8512,-2.8515,0,0,0,0,0,0,0,0,0,0,0,0,0,-2.8406,-2.8409,-2.8525,-2.8526,-2.8526,-2.8555,-2.8556,-2.8556,-2.8486,-2.8483,-2.848,-2.8478,-2.8508,-2.8511,-2.8515,0,0,0,0,0,0,0,0,0,0,0,0,0,-2.8449,-2.8409,-2.8525,-2.8495,-2.8492,-2.8555,-2.8556,-2.8556,-2.8486,-2.8483,-2.848,-2.8477,-2.8507,-2.8511,-2.8515,-2.8609,0,0,-2.8529,-2.853,0,0,0,0,0,0,0,0,-2.8447,-2.8454,-2.8499,-2.8497,-2.8494,-2.8513,-2.8524,-2.8574,-2.8487,-2.8489,-2.8479,-2.8475,-2.8513,-2.8517,-2.853,-2.8611,-2.8612,-2.8529,-2.8532,-2.8533,-2.8535,0,0,0,0,0,0,0,-2.8444,-2.8452,-2.8537,-2.8499,-2.8497,-2.8479,-2.8481,-2.8534,-2.8519,-2.8488,-2.8483,-2.8488,-2.8511,-2.8526,-2.853,-2.8612,-2.8529,-2.8533,-2.8535,-2.8537,-2.8772,-2.8775,0,0,0,0,0,0,-2.8445,-2.845,-2.8536,-2.8538,-2.8462,-2.8484,-2.8486,-2.8511,-2.8518,-2.8517,-2.8491,-2.8484,-2.852,-2.8525,-2.8531,-2.8642,-2.8533,-2.8537,-2.854,-2.8768,-2.8773,-2.8777,0,0,0,0,0,0,-2.8443,-2.8453,-2.8535,-2.8493,-2.8502,-2.8489,-2.8517,-2.8513,-2.8527,-2.852,-2.8517,-2.8508,-2.8517,-2.8524,-2.859,-2.8642,-2.8539,-2.8543,-2.8764,-2.877,-2.8775,-2.8864,0,0,0,0,0,0,-2.844,-2.8453,-2.8489,-2.8494,-2.8504,-2.8595,-2.852,-2.8516,-2.8535,-2.8527,-2.8536,-2.8534,-2.8515,-2.8584,-2.8595,-2.8646,-2.8547,-2.8759,-2.8766,-2.8773,-2.8857,-2.8872,-2.8885,0,0,0,0,0,-2.8436,-2.8513,-2.8491,-2.8502,-2.8549,-2.8598,-2.8604,-2.8581,-2.8539,-2.8575,-2.8571,-2.8534,-2.8634,-2.8592,-2.8603,-2.8656,-2.8756,-2.8764,-2.8772,-2.885,-2.8869,-2.8885,0,0,0,0,0,0,-2.8514,-2.8513,-2.8489,-2.857,-2.8585,-2.8586,-2.8631,-2.8601,-2.8628,-2.8619,-2.8589,-2.8592,-2.8663,-2.8666,-2.8618,-2.8747,-2.8688,-2.8699,-2.8743,-2.8761,-2.8775,-2.8774,-2.855,0,0,0,0,0,-2.8541,-2.8581,-2.8577,-2.8649,-2.8658,-2.8643,-2.8664,-2.8645,-2.8658,-2.8664,-2.8664,-2.8679,-2.8713,-2.8737,-2.8768,-2.8856,-2.8857,-2.8898,-2.8912,-2.8924,-2.8934,-2.8981,-2.8999,-2.8803,-2.8803,-2.8803,0,0,-2.8596,-2.8601,-2.8628,-2.8665,-2.8674,-2.8717,-2.8649,-2.8696,-2.8727,-2.8671,-2.8734,-2.8734,-2.8748,-2.8826,-2.886,-2.883,-2.8988,-2.8934,-2.8944,-2.8948,-2.8991,-2.901,-2.9026,-2.8809,-2.8808,-2.8807,0,0,-2.872,-2.8727,-2.8788,-2.8798,-2.8813,-2.8802,-2.8817,-2.8823,-2.8821,-2.8883,-2.8842,-2.8878,-2.8938,-2.895,-2.8964,-2.9091,-2.9059,-2.9102,-2.9178,-2.9224,-2.9239,-2.9253,-2.9299,-2.9316,-2.9112,-2.9112,-2.9112,0,-2.8787,-2.885,-2.8823,-2.8873,-2.8891,-2.8842,-2.8904,-2.8915,-2.8939,-2.8952,-2.8918,-2.8993,-2.8999,-2.9078,-2.9109,-2.9122,-2.9138,-2.9102,-2.9239,-2.9252,-2.9265,-2.9308,-2.9326,-2.9118,-2.9117,-2.9116,-2.9116,0,-2.8932,-2.8976,-2.9023,-2.9049,-2.9071,-2.9127,-2.9108,-2.9134,-2.9113,-2.9106,-2.917,-2.9175,-2.9207,-2.9224,-2.9203,-2.9301,-2.9282,-2.9244,-2.9184,-2.9289,-2.933,-2.9346,-2.9125,-2.9123,-2.9122,-2.912,0,0,-2.9108,-2.9116,-2.9135,-2.9145,-2.9157,-2.9191,-2.9244,-2.9275,-2.9298,-2.9316,-2.936,-2.9412,-2.9377,-2.9393,-2.9373,-2.9413,-2.9514,-2.937,-2.937,-2.9398,-2.9623,-2.9652,-2.9672,-2.9492,-2.9495,-2.9497,-2.9622,0,-2.923,-2.9323,-2.93,-2.9391,-2.9431,-2.9385,-2.9431,-2.9443,-2.9438,-2.9471,-2.9464,-2.9502,-2.9452,-2.9462,-2.9499,-2.9494,-2.9559,-2.9485,-2.9533,-2.9535,-2.9533,-2.9693,-2.9725,-2.9842,-2.9637,-2.964,-2.9642,0,-2.9387,-2.9411,-2.9507,-2.9512,-2.9528,-2.9571,-2.9597,-2.9629,-2.9642,-2.9635,-2.9653,-2.9625,-2.9677,-2.9615,-2.9687,-2.9637,-2.9655,-2.9655,-2.9659,-2.9664,-2.9596,-2.9704,-2.9879,-2.9897,-2.9667,-2.9665,-2.9663,0,-2.9507,-2.9563,-2.9628,-2.9638,-2.9646,-2.9677,-2.9681,-2.969,-2.9711,-2.9734,-2.9747,-2.9775,-2.9791,-2.9814,-2.9794,-2.9751,-2.9869,-2.9806,-2.9865,-2.9866,-2.9894,-2.9892,-3.0075,-2.9903,-2.9903,-2.9902,-2.9902,0,-2.9647,-2.9708,-2.9682,-2.9722,-2.9788,-2.976,-2.9827,-2.9826,-2.9834,-2.9873,-2.9833,-2.987,-2.9841,-2.9876,-2.986,-2.9922,-2.9929,-2.9925,-2.9921,-2.993,-2.9931,-2.9943,-2.9934,-2.9907,-2.9906,-2.9905,-2.9904,0,-2.9793,-2.9778,-2.9845,-2.9847,-2.9849,-2.9898,-2.9899,-2.9936,-2.9927,-2.9976,-2.9986,-2.9972,-3.0011,-2.9993,-3.0033,-3.0022,-3.0102,-3.0086,-3.0099,-3.0095,-3.0156,-3.0151,-3.0354,-3.0379,-3.019,-3.0191,-3.0193,0,-2.9885,-2.9931,-2.9937,-2.996,-2.9968,-3.0006,-3.0026,-3.0,-3.0023,-3.004,-3.0075,-3.011,-3.0137,-3.02,-3.0194,-3.0224,-3.0209,-3.0278,-3.0213,-3.0221,-3.0211,-3.021,-3.0214,-3.0291,-3.0294,-3.0295,-3.0297,0,-3.005,-3.004,-3.0071,-3.01,-3.0126,-3.0147,-3.0165,-3.0186,-3.016,-3.0188,-3.0227,-3.0248,-3.0288,-3.0324,-3.035,-3.0354,-3.0322,-3.0317,-3.0332,-3.0343,-3.0349,-3.0348,-3.0136,-3.0313,-3.0311,-3.031,-3.0309,-3.0309,-3.0172,-3.0211,-3.0221,-3.0257,-3.0268,-3.0286,-3.032,-3.0316,-3.0348,-3.038,-3.0361,-3.0407,-3.0418,-3.045,-3.0458,-3.0493,-3.0466,-3.0488,-3.0494,-3.05,-3.0509,-3.0342,-3.0498,-3.0497,-3.0497,-3.0496,-3.0496,0,-3.0336,-3.034,-3.0374,-3.04,-3.0429,-3.0395,-3.0413,-3.0439,-3.048,-3.0492,-3.0519,-3.0564,-3.0598,-3.0593,-3.0624,-3.0653,-3.0639,-3.0662,-3.0661,-3.0662,-3.0531,-3.0515,-3.0673,-3.0673,-3.0673,-3.0673,-3.0673,-3.0673,-3.0425,-3.0488,-3.048,-3.0548,-3.0551,-3.0596,-3.0609,-3.0625,-3.0635,-3.0687,-3.0715,-3.0712,-3.0718,-3.0748,-3.0778,-3.0775,-3.0789,-3.0818,-3.0811,-3.0689,-3.0671,-3.0655,-3.064,-3.0821,-3.0821,-3.0939,-3.094,-3.0941]},{"header":{"parameterUnit":"m.s-1","parameterCategory":1,"la1":30.2991,"la2":30.254,"lo1":-89.0895,"lo2":-89.0444,"dy":0.0017,"dx":0.0017,"nx":28,"ny":28,"refTime":"2023-11-11T03:00:00:Z","depth":0,"parameterNumber":3,"parameterNumberName":"V-component_of_WINDS"},"data":[0,0,0,0,0,0,0,0,0,0,0,0,0,0,0,0,0,0,0,0,0,0,0,0,0,0,0,0,0,0,0,0,0,0,0,0,0,0,0,0,0,0,0,0,0,0,0,0,0,0,0,0,0,0,0,0,0,0,-4.8181,-4.8182,0,-4.8208,-4.8209,-4.8209,-4.8147,-4.8145,-4.8143,-4.8141,-4.8166,-4.8169,-4.8171,0,0,0,0,0,0,0,0,0,0,0,0,0,-4.8073,-4.8075,-4.8181,-4.8182,-4.8182,-4.8208,-4.8209,-4.8209,-4.8147,-4.8144,-4.8142,-4.814,-4.8166,-4.8169,-4.8172,0,0,0,0,0,0,0,0,0,0,0,0,0,-4.8112,-4.8076,-4.8181,-4.8154,-4.8152,-4.8208,-4.8209,-4.8209,-4.8147,-4.8144,-4.8141,-4.8139,-4.8165,-4.8168,-4.8172,-4.8255,0,0,-4.8184,-4.8185,0,0,0,0,0,0,0,0,-4.811,-4.8116,-4.8158,-4.8156,-4.8154,-4.8171,-4.818,-4.8224,-4.8148,-4.8149,-4.8141,-4.8137,-4.817,-4.8173,-4.8185,-4.8256,-4.8257,-4.8184,-4.8186,-4.8188,-4.8189,0,0,0,0,0,0,0,-4.8107,-4.8114,-4.8192,-4.8158,-4.8156,-4.814,-4.8142,-4.8188,-4.8176,-4.8149,-4.8144,-4.8148,-4.8168,-4.8181,-4.8185,-4.8258,-4.8184,-4.8187,-4.819,-4.8191,-4.8397,-4.84,0,0,0,0,0,0,-4.8108,-4.8113,-4.8191,-4.8193,-4.8124,-4.8144,-4.8147,-4.8169,-4.8175,-4.8173,-4.8151,-4.8145,-4.8176,-4.8181,-4.8186,-4.8282,-4.8188,-4.8191,-4.8194,-4.8394,-4.8398,-4.8401,0,0,0,0,0,0,-4.8106,-4.8116,-4.819,-4.8151,-4.816,-4.8149,-4.8174,-4.8171,-4.8183,-4.8177,-4.8174,-4.8167,-4.8174,-4.818,-4.8238,-4.8282,-4.8193,-4.8197,-4.839,-4.8395,-4.8399,-4.8477,0,0,0,0,0,0,-4.8103,-4.8115,-4.8148,-4.8153,-4.8162,-4.8243,-4.8177,-4.8173,-4.819,-4.8183,-4.8191,-4.8189,-4.8172,-4.8233,-4.8242,-4.8286,-4.82,-4.8386,-4.8392,-4.8398,-4.8471,-4.8484,-4.8496,0,0,0,0,0,-4.81,-4.8169,-4.815,-4.816,-4.8202,-4.8246,-4.8251,-4.8231,-4.8194,-4.8226,-4.8222,-4.8189,-4.8276,-4.8239,-4.8249,-4.8295,-4.8383,-4.839,-4.8397,-4.8465,-4.8482,-4.8496,0,0,0,0,0,0,-4.8169,-4.8169,-4.8148,-4.8221,-4.8234,-4.8235,-4.8275,-4.8249,-4.8272,-4.8265,-4.8238,-4.824,-4.8302,-4.8304,-4.8263,-4.8375,-4.8323,-4.8333,-4.8372,-4.8387,-4.8399,-4.8397,-4.8203,0,0,0,0,0,-4.8193,-4.8229,-4.8226,-4.8291,-4.8298,-4.8286,-4.8304,-4.8287,-4.8299,-4.8304,-4.8304,-4.8317,-4.8346,-4.8367,-4.8394,-4.8471,-4.8471,-4.8507,-4.852,-4.853,-4.8538,-4.8578,-4.8594,-4.8425,-4.8424,-4.8424,0,0,-4.8242,-4.8246,-4.8271,-4.8305,-4.8313,-4.835,-4.8291,-4.8333,-4.8359,-4.831,-4.8365,-4.8365,-4.8377,-4.8444,-4.8474,-4.8448,-4.8585,-4.8539,-4.8547,-4.855,-4.8587,-4.8603,-4.8617,-4.8429,-4.8429,-4.8428,0,0,-4.8351,-4.8358,-4.8412,-4.8421,-4.8434,-4.8425,-4.8438,-4.8444,-4.8442,-4.8496,-4.846,-4.8491,-4.8544,-4.8553,-4.8565,-4.8676,-4.8647,-4.8686,-4.8751,-4.879,-4.8803,-4.8815,-4.8854,-4.8868,-4.8694,-4.8695,-4.8695,0,-4.841,-4.8465,-4.8443,-4.8487,-4.8503,-4.846,-4.8514,-4.8523,-4.8545,-4.8556,-4.8527,-4.8591,-4.8596,-4.8665,-4.8692,-4.8703,-4.8716,-4.8685,-4.8803,-4.8815,-4.8825,-4.8862,-4.8877,-4.8699,-4.8699,-4.8698,-4.8698,0,-4.8537,-4.8576,-4.8618,-4.864,-4.866,-4.8709,-4.8693,-4.8715,-4.8696,-4.869,-4.8745,-4.875,-4.8777,-4.8792,-4.8774,-4.8857,-4.8841,-4.8808,-4.8755,-4.8847,-4.8881,-4.8895,-4.8706,-4.8704,-4.8703,-4.8702,0,0,-4.8691,-4.8699,-4.8715,-4.8724,-4.8735,-4.8764,-4.881,-4.8837,-4.8857,-4.8872,-4.891,-4.8955,-4.8924,-4.8938,-4.892,-4.8954,-4.9041,-4.8917,-4.8917,-4.8939,-4.9133,-4.9157,-4.9174,-4.9022,-4.9024,-4.9026,-4.9131,0,-4.8798,-4.8879,-4.8859,-4.8938,-4.8973,-4.8932,-4.8972,-4.8983,-4.8978,-4.9006,-4.8999,-4.9032,-4.8989,-4.8997,-4.9029,-4.9024,-4.9079,-4.9016,-4.9055,-4.9057,-4.9053,-4.9192,-4.9218,-4.9317,-4.9145,-4.9147,-4.9148,0,-4.8934,-4.8956,-4.9038,-4.9042,-4.9056,-4.9093,-4.9115,-4.9143,-4.9153,-4.9147,-4.9162,-4.9137,-4.9181,-4.9129,-4.9189,-4.9146,-4.9161,-4.9161,-4.9164,-4.9167,-4.9108,-4.9198,-4.9348,-4.9363,-4.9169,-4.9168,-4.9166,0,-4.9038,-4.9087,-4.9142,-4.9151,-4.9157,-4.9184,-4.9188,-4.9195,-4.9212,-4.9231,-4.9242,-4.9266,-4.9279,-4.9298,-4.928,-4.9243,-4.9343,-4.9289,-4.9338,-4.9339,-4.9361,-4.936,-4.9516,-4.9371,-4.9371,-4.9371,-4.937,0,-4.9159,-4.9211,-4.9188,-4.9223,-4.9279,-4.9255,-4.9312,-4.9311,-4.9318,-4.935,-4.9316,-4.9347,-4.9322,-4.935,-4.9336,-4.9388,-4.9394,-4.939,-4.9385,-4.9393,-4.9393,-4.9402,-4.9394,-4.9375,-4.9374,-4.9373,-4.9372,0,-4.9284,-4.9271,-4.9329,-4.933,-4.9331,-4.9373,-4.9373,-4.9404,-4.9396,-4.9438,-4.9446,-4.9434,-4.9465,-4.9449,-4.9482,-4.9473,-4.9539,-4.9526,-4.9536,-4.9532,-4.9582,-4.9578,-4.9749,-4.977,-4.9613,-4.9614,-4.9615,0,-4.9363,-4.9402,-4.9407,-4.9426,-4.9432,-4.9464,-4.9481,-4.9459,-4.9478,-4.9492,-4.9521,-4.955,-4.9572,-4.9624,-4.9617,-4.9642,-4.9629,-4.9687,-4.9632,-4.9638,-4.9629,-4.9627,-4.963,-4.9698,-4.97,-4.9701,-4.9702,0,-4.9503,-4.9494,-4.9521,-4.9545,-4.9566,-4.9584,-4.9598,-4.9616,-4.9594,-4.9617,-4.9649,-4.9666,-4.9699,-4.9727,-4.9749,-4.9751,-4.9723,-4.972,-4.9732,-4.974,-4.9744,-4.9742,-4.9565,-4.9716,-4.9714,-4.9713,-4.9713,-4.9712,-4.9607,-4.9639,-4.9648,-4.9677,-4.9686,-4.97,-4.9729,-4.9725,-4.9751,-4.9777,-4.9762,-4.9799,-4.9807,-4.9833,-4.9839,-4.9867,-4.9844,-4.9862,-4.9867,-4.9872,-4.9878,-4.974,-4.9871,-4.987,-4.987,-4.987,-4.9869,0,-4.9745,-4.9748,-4.9776,-4.9797,-4.9821,-4.9792,-4.9807,-4.9828,-4.9861,-4.9871,-4.9893,-4.9929,-4.9957,-4.9952,-4.9977,-5.0,-4.9988,-5.0007,-5.0005,-5.0006,-4.9898,-4.9884,-5.0017,-5.0017,-5.0017,-5.0017,-5.0017,-5.0017,-4.9819,-4.9872,-4.9865,-4.9921,-4.9923,-4.996,-4.997,-4.9983,-4.9991,-5.0033,-5.0055,-5.0052,-5.0056,-5.008,-5.0104,-5.0102,-5.0112,-5.0136,-5.0129,-5.0029,-5.0014,-5.0,-4.9987,-5.0139,-5.0139,-5.0235,-5.0236,-5.0237]}]]